Time,TemperatureF,DewpointF,PressureIn,WindDirection,WindDirectionDegrees,WindSpeedMPH,WindSpeedGustMPH,Humidity,HourlyPrecipIn,Conditions,Clouds,dailyrainin,SoftwareType,DateUTC
2013-02-28 00:00:00,21.2,17.1,30.55,South,182,4.0,4.0,84,0.00,,,0.00,Wunderground v.1.15,2013-02-28 07:00:00,
2013-02-28 00:06:00,21.3,17.2,30.55,South,181,2.0,35.0,84,0.00,,,0.00,Wunderground v.1.15,2013-02-28 07:06:00,
2013-02-28 00:12:00,21.2,17.1,30.55,South,181,1.0,35.0,84,0.00,,,0.00,Wunderground v.1.15,2013-02-28 07:12:00,
2013-02-28 00:18:00,21.0,16.9,30.55,South,181,0.0,35.0,84,0.00,,,0.00,Wunderground v.1.15,2013-02-28 07:18:00,
2013-02-28 00:24:00,20.5,16.2,30.55,South,181,0.0,35.0,83,0.00,,,0.00,Wunderground v.1.15,2013-02-28 07:24:00,
2013-02-28 00:30:00,20.0,15.9,30.55,SE,131,1.0,35.0,84,0.00,,,0.00,Wunderground v.1.15,2013-02-28 07:30:00,
2013-02-28 00:36:00,20.2,17.0,30.55,SE,130,1.0,35.0,87,0.00,,,0.00,Wunderground v.1.15,2013-02-28 07:36:00,
2013-02-28 00:42:00,20.1,16.0,30.55,SE,130,0.0,35.0,84,0.00,,,0.00,Wunderground v.1.15,2013-02-28 07:42:00,
2013-02-28 00:48:00,19.9,16.1,30.55,SE,130,0.0,35.0,85,0.00,,,0.00,Wunderground v.1.15,2013-02-28 07:48:00,
2013-02-28 00:54:00,20.1,16.6,30.55,SE,130,0.0,35.0,86,0.00,,,0.00,Wunderground v.1.15,2013-02-28 07:54:00,
2013-02-28 01:00:00,20.3,17.0,30.54,SSE,147,1.0,35.0,87,0.00,,,0.00,Wunderground v.1.15,2013-02-28 08:00:00,
2013-02-28 01:06:00,20.7,17.4,30.54,SSE,147,2.0,35.0,87,0.00,,,0.00,Wunderground v.1.15,2013-02-28 08:06:00,
2013-02-28 01:12:00,21.3,18.3,30.54,SSE,153,3.0,35.0,88,0.00,,,0.00,Wunderground v.1.15,2013-02-28 08:12:00,
2013-02-28 01:18:00,21.4,18.1,30.54,SSE,154,4.0,35.0,87,0.00,,,0.00,Wunderground v.1.15,2013-02-28 08:18:00,
2013-02-28 01:24:00,21.3,17.8,30.54,SSE,152,4.0,35.0,86,0.00,,,0.00,Wunderground v.1.15,2013-02-28 08:24:00,
2013-02-28 01:30:00,21.4,18.1,30.53,SSE,149,3.0,35.0,87,0.00,,,0.00,Wunderground v.1.15,2013-02-28 08:30:00,
2013-02-28 01:36:00,21.5,18.2,30.54,SSE,148,3.0,35.0,87,0.00,,,0.00,Wunderground v.1.15,2013-02-28 08:36:00,
2013-02-28 01:42:00,21.2,17.4,30.54,SSE,148,1.0,35.0,85,0.00,,,0.00,Wunderground v.1.15,2013-02-28 08:42:00,
2013-02-28 01:48:00,20.5,16.4,30.54,SSE,148,0.0,35.0,84,0.00,,,0.00,Wunderground v.1.15,2013-02-28 08:48:00,
2013-02-28 01:54:00,19.6,15.6,30.54,SSE,148,0.0,35.0,84,0.00,,,0.00,Wunderground v.1.15,2013-02-28 08:54:00,
2013-02-28 02:00:00,19.5,16.3,30.54,SSE,148,1.0,35.0,87,0.00,,,0.00,Wunderground v.1.15,2013-02-28 09:00:00,
2013-02-28 02:06:00,20.0,17.0,30.54,SSE,148,1.0,35.0,88,0.00,,,0.00,Wunderground v.1.15,2013-02-28 09:06:00,
2013-02-28 02:12:00,20.2,17.2,30.54,SSE,148,1.0,35.0,88,0.00,,,0.00,Wunderground v.1.15,2013-02-28 09:12:00,
2013-02-28 02:18:00,20.0,16.8,30.54,SSE,148,0.0,35.0,87,0.00,,,0.00,Wunderground v.1.15,2013-02-28 09:18:00,
2013-02-28 02:24:00,19.3,15.5,30.54,SSE,148,0.0,35.0,85,0.00,,,0.00,Wunderground v.1.15,2013-02-28 09:24:00,
2013-02-28 02:30:00,18.9,15.1,30.53,SSE,148,0.0,35.0,85,0.00,,,0.00,Wunderground v.1.15,2013-02-28 09:30:00,
2013-02-28 02:36:00,19.3,16.6,30.53,SSE,148,1.0,35.0,89,0.00,,,0.00,Wunderground v.1.15,2013-02-28 09:36:00,
2013-02-28 02:42:00,19.9,16.9,30.53,SSE,148,1.0,35.0,88,0.00,,,0.00,Wunderground v.1.15,2013-02-28 09:42:00,
2013-02-28 02:48:00,19.5,16.0,30.53,SSE,148,0.0,35.0,86,0.00,,,0.00,Wunderground v.1.15,2013-02-28 09:48:00,
2013-02-28 02:54:00,18.7,15.2,30.53,SSE,148,0.0,35.0,86,0.00,,,0.00,Wunderground v.1.15,2013-02-28 09:54:00,
2013-02-28 03:00:00,18.4,15.2,30.53,SSE,148,0.0,35.0,87,0.00,,,0.00,Wunderground v.1.15,2013-02-28 10:00:00,
2013-02-28 03:06:00,18.1,14.6,30.53,SSE,148,0.0,35.0,86,0.00,,,0.00,Wunderground v.1.15,2013-02-28 10:06:00,
2013-02-28 03:12:00,17.3,13.6,30.54,SSE,148,0.0,35.0,85,0.00,,,0.00,Wunderground v.1.15,2013-02-28 10:12:00,
2013-02-28 03:18:00,16.8,13.3,30.53,SSE,148,0.0,35.0,86,0.00,,,0.00,Wunderground v.1.15,2013-02-28 10:18:00,
2013-02-28 03:24:00,17.0,14.1,30.54,SSE,148,0.0,35.0,88,0.00,,,0.00,Wunderground v.1.15,2013-02-28 10:24:00,
2013-02-28 03:30:00,17.3,14.6,30.54,SSE,148,0.0,35.0,89,0.00,,,0.00,Wunderground v.1.15,2013-02-28 10:30:00,
2013-02-28 03:36:00,17.9,15.5,30.54,SSE,148,0.0,35.0,90,0.00,,,0.00,Wunderground v.1.15,2013-02-28 10:36:00,
2013-02-28 03:42:00,18.2,15.8,30.54,SSE,148,0.0,35.0,90,0.00,,,0.00,Wunderground v.1.15,2013-02-28 10:42:00,
2013-02-28 03:48:00,18.4,15.7,30.54,SSE,148,0.0,35.0,89,0.00,,,0.00,Wunderground v.1.15,2013-02-28 10:48:00,
2013-02-28 03:54:00,18.1,15.1,30.54,SSE,148,0.0,35.0,88,0.00,,,0.00,Wunderground v.1.15,2013-02-28 10:54:00,
2013-02-28 04:00:00,17.9,14.9,30.54,SSE,148,0.0,35.0,88,0.00,,,0.00,Wunderground v.1.15,2013-02-28 11:00:00,
2013-02-28 04:06:00,17.8,14.8,30.54,SSE,148,0.0,35.0,88,0.00,,,0.00,Wunderground v.1.15,2013-02-28 11:06:00,
2013-02-28 04:12:00,18.0,15.3,30.54,SSE,148,1.0,35.0,89,0.00,,,0.00,Wunderground v.1.15,2013-02-28 11:12:00,
2013-02-28 04:18:00,18.4,16.0,30.55,SSE,148,2.0,35.0,90,0.00,,,0.00,Wunderground v.1.15,2013-02-28 11:18:00,
2013-02-28 04:24:00,18.8,16.4,30.55,SSE,148,2.0,35.0,90,0.00,,,0.00,Wunderground v.1.15,2013-02-28 11:24:00,
2013-02-28 04:30:00,19.1,16.7,30.55,SSE,148,2.0,2.0,90,0.00,,,0.00,Wunderground v.1.15,2013-02-28 11:30:00,
2013-02-28 04:36:00,17.8,14.1,30.55,SSE,148,1.0,35.0,85,0.00,,,0.00,Wunderground v.1.15,2013-02-28 11:36:00,
2013-02-28 04:42:00,16.3,12.0,30.55,SSE,148,0.0,35.0,83,0.00,,,0.00,Wunderground v.1.15,2013-02-28 11:42:00,
2013-02-28 04:48:00,16.2,13.3,30.55,SSE,148,0.0,35.0,88,0.00,,,0.00,Wunderground v.1.15,2013-02-28 11:48:00,
2013-02-28 04:54:00,15.6,12.2,30.55,South,171,1.0,35.0,86,0.00,,,0.00,Wunderground v.1.15,2013-02-28 11:54:00,
2013-02-28 05:00:00,14.5,11.3,30.55,South,181,1.0,35.0,87,0.00,,,0.00,Wunderground v.1.15,2013-02-28 12:00:00,
2013-02-28 05:06:00,14.1,11.2,30.55,South,182,1.0,35.0,88,0.00,,,0.00,Wunderground v.1.15,2013-02-28 12:06:00,
2013-02-28 05:12:00,14.3,11.7,30.55,South,182,1.0,35.0,89,0.00,,,0.00,Wunderground v.1.15,2013-02-28 12:12:00,
2013-02-28 05:18:00,14.6,11.9,30.55,South,182,0.0,35.0,89,0.00,,,0.00,Wunderground v.1.15,2013-02-28 12:18:00,
2013-02-28 05:24:00,14.8,12.1,30.56,South,182,0.0,35.0,89,0.00,,,0.00,Wunderground v.1.15,2013-02-28 12:24:00,
2013-02-28 05:30:00,14.8,12.1,30.56,South,182,0.0,35.0,89,0.00,,,0.00,Wunderground v.1.15,2013-02-28 12:30:00,
2013-02-28 05:36:00,14.8,12.1,30.56,South,182,0.0,35.0,89,0.00,,,0.00,Wunderground v.1.15,2013-02-28 12:36:00,
2013-02-28 05:42:00,14.8,12.1,30.56,South,182,0.0,35.0,89,0.00,,,0.00,Wunderground v.1.15,2013-02-28 12:42:00,
2013-02-28 05:48:00,14.7,12.0,30.56,South,182,0.0,35.0,89,0.00,,,0.00,Wunderground v.1.15,2013-02-28 12:48:00,
2013-02-28 05:54:00,14.7,12.0,30.56,South,182,0.0,35.0,89,0.00,,,0.00,Wunderground v.1.15,2013-02-28 12:54:00,
2013-02-28 06:00:00,14.7,12.0,30.56,South,182,0.0,35.0,89,0.00,,,0.00,Wunderground v.1.15,2013-02-28 13:00:00,
2013-02-28 06:06:00,14.6,11.9,30.56,South,182,0.0,35.0,89,0.00,,,0.00,Wunderground v.1.15,2013-02-28 13:06:00,
2013-02-28 06:12:00,14.5,11.9,30.56,South,182,0.0,35.0,89,0.00,,,0.00,Wunderground v.1.15,2013-02-28 13:12:00,
2013-02-28 06:18:00,14.4,11.8,30.56,South,182,0.0,35.0,89,0.00,,,0.00,Wunderground v.1.15,2013-02-28 13:18:00,
2013-02-28 06:24:00,14.3,11.7,30.57,South,182,0.0,35.0,89,0.00,,,0.00,Wunderground v.1.15,2013-02-28 13:24:00,
2013-02-28 06:30:00,14.4,11.8,30.56,South,182,0.0,35.0,89,0.00,,,0.00,Wunderground v.1.15,2013-02-28 13:30:00,
2013-02-28 06:36:00,14.8,12.4,30.56,South,182,0.0,35.0,90,0.00,,,0.00,Wunderground v.1.15,2013-02-28 13:36:00,
2013-02-28 06:42:00,15.1,12.7,30.57,South,182,0.0,35.0,90,0.00,,,0.00,Wunderground v.1.15,2013-02-28 13:42:00,
2013-02-28 06:48:00,15.3,12.9,30.56,South,182,0.0,35.0,90,0.00,,,0.00,Wunderground v.1.15,2013-02-28 13:48:00,
2013-02-28 06:54:00,15.9,13.7,30.57,South,183,1.0,35.0,91,0.00,,,0.00,Wunderground v.1.15,2013-02-28 13:54:00,
2013-02-28 07:00:00,16.3,13.9,30.57,South,183,1.0,1.0,90,0.00,,,0.00,Wunderground v.1.15,2013-02-28 14:00:00,
2013-02-28 07:06:00,17.5,15.6,30.57,South,182,0.0,35.0,92,0.00,,,0.00,Wunderground v.1.15,2013-02-28 14:06:00,
2013-02-28 07:12:00,16.5,13.6,30.57,SSW,194,1.0,35.0,88,0.00,,,0.00,Wunderground v.1.15,2013-02-28 14:12:00,
2013-02-28 07:18:00,16.0,13.1,30.57,SSW,195,0.0,35.0,88,0.00,,,0.00,Wunderground v.1.15,2013-02-28 14:18:00,
2013-02-28 07:24:00,16.1,13.2,30.57,SSW,195,0.0,35.0,88,0.00,,,0.00,Wunderground v.1.15,2013-02-28 14:24:00,
2013-02-28 07:30:00,16.5,13.8,30.57,SSW,195,0.0,35.0,89,0.00,,,0.00,Wunderground v.1.15,2013-02-28 14:30:00,
2013-02-28 07:36:00,17.5,15.1,30.57,SSW,195,0.0,35.0,90,0.00,,,0.00,Wunderground v.1.15,2013-02-28 14:36:00,
2013-02-28 07:42:00,18.2,15.5,30.57,SSW,193,0.0,35.0,89,0.00,,,0.00,Wunderground v.1.15,2013-02-28 14:42:00,
2013-02-28 07:48:00,19.0,16.3,30.57,SSW,193,0.0,35.0,89,0.00,,,0.00,Wunderground v.1.15,2013-02-28 14:48:00,
2013-02-28 07:54:00,20.0,17.5,30.57,SSW,193,0.0,35.0,90,0.00,,,0.00,Wunderground v.1.15,2013-02-28 14:54:00,
2013-02-28 08:00:00,20.9,18.2,30.58,SSW,192,0.0,35.0,89,0.00,,,0.00,Wunderground v.1.15,2013-02-28 15:00:00,
2013-02-28 08:06:00,21.5,18.5,30.58,SSE,156,1.0,35.0,88,0.00,,,0.00,Wunderground v.1.15,2013-02-28 15:06:00,
2013-02-28 08:12:00,22.0,19.0,30.58,SSE,156,1.0,35.0,88,0.00,,,0.00,Wunderground v.1.15,2013-02-28 15:12:00,
2013-02-28 08:18:00,22.8,19.8,30.58,SSE,156,1.0,35.0,88,0.00,,,0.00,Wunderground v.1.15,2013-02-28 15:18:00,
2013-02-28 08:24:00,23.6,20.6,30.58,SSE,156,1.0,35.0,88,0.00,,,0.00,Wunderground v.1.15,2013-02-28 15:24:00,
2013-02-28 08:30:00,24.5,21.7,30.58,SSE,147,1.0,35.0,89,0.00,,,0.00,Wunderground v.1.15,2013-02-28 15:30:00,
2013-02-28 08:36:00,25.6,22.3,30.58,South,170,2.0,35.0,87,0.00,,,0.00,Wunderground v.1.15,2013-02-28 15:36:00,
2013-02-28 08:42:00,26.4,23.1,30.58,SSE,166,2.0,35.0,87,0.00,,,0.00,Wunderground v.1.15,2013-02-28 15:42:00,
2013-02-28 08:48:00,26.7,22.8,30.58,SSE,164,3.0,35.0,85,0.00,,,0.00,Wunderground v.1.15,2013-02-28 15:48:00,
2013-02-28 08:54:00,27.2,23.6,30.57,SSE,153,4.0,35.0,86,0.00,,,0.00,Wunderground v.1.15,2013-02-28 15:54:00,
2013-02-28 09:00:00,27.7,23.8,30.57,SSE,158,4.0,35.0,85,0.00,,,0.00,Wunderground v.1.15,2013-02-28 16:00:00,
2013-02-28 09:06:00,27.7,23.2,30.58,SSE,162,5.0,35.0,83,0.00,,,0.00,Wunderground v.1.15,2013-02-28 16:06:00,
2013-02-28 09:12:00,28.0,23.2,30.58,South,170,5.0,35.0,82,0.00,,,0.00,Wunderground v.1.15,2013-02-28 16:12:00,
2013-02-28 09:18:00,28.4,23.9,30.58,South,169,5.0,35.0,83,0.00,,,0.00,Wunderground v.1.15,2013-02-28 16:18:00,
2013-02-28 09:24:00,28.4,23.6,30.58,SSE,168,5.0,35.0,82,0.00,,,0.00,Wunderground v.1.15,2013-02-28 16:24:00,
2013-02-28 09:30:00,28.8,23.7,30.58,SSE,164,6.0,6.0,81,0.00,,,0.00,Wunderground v.1.15,2013-02-28 16:30:00,
2013-02-28 09:36:00,29.3,23.6,30.58,SSE,166,5.0,35.0,79,0.00,,,0.00,Wunderground v.1.15,2013-02-28 16:36:00,
2013-02-28 09:42:00,29.4,23.1,30.58,SSE,164,6.0,35.0,77,0.00,,,0.00,Wunderground v.1.15,2013-02-28 16:42:00,
2013-02-28 09:48:00,29.8,23.5,30.58,SSE,166,5.0,35.0,77,0.00,,,0.00,Wunderground v.1.15,2013-02-28 16:48:00,
2013-02-28 09:54:00,30.6,23.9,30.57,SSE,166,4.0,35.0,76,0.00,,,0.00,Wunderground v.1.15,2013-02-28 16:54:00,
2013-02-28 10:00:00,31.1,24.1,30.58,SSE,164,5.0,5.0,75,0.00,,,0.00,Wunderground v.1.15,2013-02-28 17:00:00,
2013-02-28 10:06:00,31.2,23.5,30.57,South,186,6.0,35.0,73,0.00,,,0.00,Wunderground v.1.15,2013-02-28 17:06:00,
2013-02-28 10:12:00,31.4,23.4,30.57,South,191,6.0,35.0,72,0.00,,,0.00,Wunderground v.1.15,2013-02-28 17:12:00,
2013-02-28 10:18:00,32.4,24.0,30.57,SSW,195,5.0,35.0,71,0.00,,,0.00,Wunderground v.1.15,2013-02-28 17:18:00,
2013-02-28 10:24:00,33.1,23.7,30.56,SSE,154,4.0,35.0,68,0.00,,,0.00,Wunderground v.1.15,2013-02-28 17:24:00,
2013-02-28 10:30:00,33.6,24.2,30.56,SSE,164,3.0,35.0,68,0.00,,,0.00,Wunderground v.1.15,2013-02-28 17:30:00,
2013-02-28 10:36:00,33.7,23.9,30.56,SSE,151,3.0,35.0,67,0.00,,,0.00,Wunderground v.1.15,2013-02-28 17:36:00,
2013-02-28 10:42:00,34.3,24.5,30.56,South,172,2.0,35.0,67,0.00,,,0.00,Wunderground v.1.15,2013-02-28 17:42:00,
2013-02-28 10:48:00,35.1,23.8,30.56,South,185,3.0,35.0,63,0.00,,,0.00,Wunderground v.1.15,2013-02-28 17:48:00,
2013-02-28 10:54:00,35.0,23.3,30.55,South,185,3.0,35.0,62,0.00,,,0.00,Wunderground v.1.15,2013-02-28 17:54:00,
2013-02-28 11:00:00,35.3,23.2,30.55,South,185,2.0,2.0,61,0.00,,,0.00,Wunderground v.1.15,2013-02-28 18:00:00,
2013-02-28 11:06:00,36.1,23.5,30.55,SE,125,2.0,35.0,60,0.00,,,0.00,Wunderground v.1.15,2013-02-28 18:06:00,
2013-02-28 11:12:00,35.8,23.3,30.55,SE,125,2.0,35.0,60,0.00,,,0.00,Wunderground v.1.15,2013-02-28 18:12:00,
2013-02-28 11:18:00,36.3,23.7,30.55,SE,125,1.0,35.0,60,0.00,,,0.00,Wunderground v.1.15,2013-02-28 18:18:00,
2013-02-28 11:24:00,36.9,23.5,30.55,SE,125,1.0,35.0,58,0.00,,,0.00,Wunderground v.1.15,2013-02-28 18:24:00,
2013-02-28 11:30:00,37.1,23.3,30.55,East,84,3.0,35.0,57,0.00,,,0.00,Wunderground v.1.15,2013-02-28 18:30:00,
2013-02-28 11:36:00,37.3,22.6,30.55,NNW,344,3.0,35.0,55,0.00,,,0.00,Wunderground v.1.15,2013-02-28 18:36:00,
2013-02-28 11:42:00,37.7,23.0,30.54,East,81,3.0,35.0,55,0.00,,,0.00,Wunderground v.1.15,2013-02-28 18:42:00,
2013-02-28 11:48:00,37.8,23.1,30.54,NE,41,3.0,35.0,55,0.00,,,0.00,Wunderground v.1.15,2013-02-28 18:48:00,
2013-02-28 11:54:00,38.0,22.8,30.53,NE,39,2.0,35.0,54,0.00,,,0.00,Wunderground v.1.15,2013-02-28 18:54:00,
2013-02-28 12:00:00,38.3,23.1,30.53,NE,41,2.0,2.0,54,0.00,,,0.00,Wunderground v.1.15,2013-02-28 19:00:00,
2013-02-28 12:06:00,38.8,23.1,30.52,ENE,64,1.0,35.0,53,0.00,,,0.00,Wunderground v.1.15,2013-02-28 19:06:00,
2013-02-28 12:12:00,39.5,23.3,30.52,NNE,21,2.0,35.0,52,0.00,,,0.00,Wunderground v.1.15,2013-02-28 19:12:00,
2013-02-28 12:18:00,39.8,23.1,30.52,East,92,3.0,35.0,51,0.00,,,0.00,Wunderground v.1.15,2013-02-28 19:18:00,
2013-02-28 12:24:00,40.2,23.5,30.52,NNW,345,3.0,6.0,51,0.00,,,0.00,Wunderground v.1.15,2013-02-28 19:24:00,
2013-02-28 12:30:00,40.0,23.3,30.52,NNE,22,4.0,4.0,51,0.00,,,0.00,Wunderground v.1.15,2013-02-28 19:30:00,
2013-02-28 12:36:00,40.7,23.5,30.51,NNE,28,4.0,35.0,50,0.00,,,0.00,Wunderground v.1.15,2013-02-28 19:36:00,
2013-02-28 12:42:00,41.2,23.5,30.51,NNW,339,4.0,35.0,49,0.00,,,0.00,Wunderground v.1.15,2013-02-28 19:42:00,
2013-02-28 12:48:00,40.7,23.5,30.51,NW,315,4.0,35.0,50,0.00,,,0.00,Wunderground v.1.15,2013-02-28 19:48:00,
2013-02-28 12:54:00,41.1,23.4,30.51,WNW,295,3.0,35.0,49,0.00,,,0.00,Wunderground v.1.15,2013-02-28 19:54:00,
2013-02-28 13:00:00,40.6,23.4,30.51,NE,37,3.0,35.0,50,0.00,,,0.00,Wunderground v.1.15,2013-02-28 20:00:00,
2013-02-28 13:06:00,41.1,23.4,30.50,NE,43,3.0,35.0,49,0.00,,,0.00,Wunderground v.1.15,2013-02-28 20:06:00,
2013-02-28 13:12:00,41.4,23.6,30.50,NE,38,4.0,35.0,49,0.00,,,0.00,Wunderground v.1.15,2013-02-28 20:12:00,
2013-02-28 13:18:00,42.1,23.3,30.50,North,359,3.0,35.0,47,0.00,,,0.00,Wunderground v.1.15,2013-02-28 20:18:00,
2013-02-28 13:24:00,41.2,23.0,30.50,North,359,5.0,35.0,48,0.00,,,0.00,Wunderground v.1.15,2013-02-28 20:24:00,
2013-02-28 13:30:00,41.3,23.1,30.50,NNW,335,7.0,7.0,48,0.00,,,0.00,Wunderground v.1.15,2013-02-28 20:30:00,
2013-02-28 13:36:00,40.8,23.1,30.50,NW,324,7.0,35.0,49,0.00,,,0.00,Wunderground v.1.15,2013-02-28 20:36:00,
2013-02-28 13:42:00,40.3,23.6,30.50,West,276,6.0,35.0,51,0.00,,,0.00,Wunderground v.1.15,2013-02-28 20:42:00,
2013-02-28 13:48:00,40.2,24.0,30.50,WNW,297,4.0,35.0,52,0.00,,,0.00,Wunderground v.1.15,2013-02-28 20:48:00,
2013-02-28 13:54:00,40.0,24.7,30.50,West,270,4.0,35.0,54,0.00,,,0.00,Wunderground v.1.15,2013-02-28 20:54:00,
2013-02-28 14:00:00,40.9,24.1,30.50,North,4,5.0,5.0,51,0.00,,,0.00,Wunderground v.1.15,2013-02-28 21:00:00,
2013-02-28 14:06:00,41.7,23.9,30.50,NW,305,5.0,35.0,49,0.00,,,0.00,Wunderground v.1.15,2013-02-28 21:06:00,
2013-02-28 14:12:00,41.6,22.8,30.50,WNW,303,3.0,35.0,47,0.00,,,0.00,Wunderground v.1.15,2013-02-28 21:12:00,
2013-02-28 14:18:00,41.1,22.4,30.50,NNW,333,4.0,35.0,47,0.00,,,0.00,Wunderground v.1.15,2013-02-28 21:18:00,
2013-02-28 14:24:00,39.5,25.9,30.51,NNW,346,7.0,35.0,58,0.00,,,0.00,Wunderground v.1.15,2013-02-28 21:24:00,
2013-02-28 14:30:00,36.1,27.9,30.51,WNW,289,8.0,8.0,72,0.00,,,0.00,Wunderground v.1.15,2013-02-28 21:30:00,
2013-02-28 14:36:00,35.1,28.9,30.50,West,280,3.0,35.0,78,0.00,,,0.00,Wunderground v.1.15,2013-02-28 21:36:00,
2013-02-28 14:42:00,35.0,29.5,30.50,NNE,21,1.0,35.0,80,0.00,,,0.00,Wunderground v.1.15,2013-02-28 21:42:00,
2013-02-28 14:48:00,35.6,30.3,30.50,NE,41,3.0,35.0,81,0.00,,,0.00,Wunderground v.1.15,2013-02-28 21:48:00,
2013-02-28 14:54:00,36.1,29.9,30.50,NE,41,2.0,35.0,78,0.00,,,0.00,Wunderground v.1.15,2013-02-28 21:54:00,
2013-02-28 15:00:00,36.6,29.7,30.50,NE,41,1.0,1.0,76,0.00,,,0.00,Wunderground v.1.15,2013-02-28 22:00:00,
2013-02-28 15:06:00,36.9,29.1,30.50,NE,41,1.0,35.0,73,0.00,,,0.00,Wunderground v.1.15,2013-02-28 22:06:00,
2013-02-28 15:12:00,37.4,28.9,30.50,NE,41,1.0,35.0,71,0.00,,,0.00,Wunderground v.1.15,2013-02-28 22:12:00,
2013-02-28 15:18:00,38.0,29.1,30.50,NE,41,1.0,35.0,70,0.00,,,0.00,Wunderground v.1.15,2013-02-28 22:18:00,
2013-02-28 15:24:00,38.4,28.8,30.50,NE,41,1.0,35.0,68,0.00,,,0.00,Wunderground v.1.15,2013-02-28 22:24:00,
2013-02-28 15:30:00,38.6,27.8,30.50,NNE,27,2.0,35.0,65,0.00,,,0.00,Wunderground v.1.15,2013-02-28 22:30:00,
2013-02-28 15:36:00,38.2,27.8,30.50,NNE,30,6.0,35.0,66,0.00,,,0.00,Wunderground v.1.15,2013-02-28 22:36:00,
2013-02-28 15:42:00,37.9,27.9,30.50,NE,36,6.0,35.0,67,0.00,,,0.00,Wunderground v.1.15,2013-02-28 22:42:00,
2013-02-28 15:48:00,37.8,27.8,30.50,NE,48,4.0,35.0,67,0.00,,,0.00,Wunderground v.1.15,2013-02-28 22:48:00,
2013-02-28 15:54:00,37.8,28.2,30.50,NE,45,2.0,35.0,68,0.00,,,0.00,Wunderground v.1.15,2013-02-28 22:54:00,
2013-02-28 16:00:00,37.8,27.8,30.50,NE,56,3.0,35.0,67,0.00,,,0.00,Wunderground v.1.15,2013-02-28 23:00:00,
2013-02-28 16:06:00,37.9,28.3,30.49,ENE,77,3.0,35.0,68,0.00,,,0.00,Wunderground v.1.15,2013-02-28 23:06:00,
2013-02-28 16:12:00,38.3,27.2,30.49,East,90,3.0,35.0,64,0.00,,,0.00,Wunderground v.1.15,2013-02-28 23:12:00,
2013-02-28 16:18:00,38.5,27.7,30.49,SE,131,4.0,35.0,65,0.00,,,0.00,Wunderground v.1.15,2013-02-28 23:18:00,
2013-02-28 16:24:00,38.5,27.7,30.49,SSE,158,3.0,35.0,65,0.00,,,0.00,Wunderground v.1.15,2013-02-28 23:24:00,
2013-02-28 16:30:00,38.5,27.4,30.49,SSE,152,2.0,35.0,64,0.00,,,0.00,Wunderground v.1.15,2013-02-28 23:30:00,
2013-02-28 16:36:00,38.6,27.1,30.49,SSE,165,2.0,35.0,63,0.00,,,0.00,Wunderground v.1.15,2013-02-28 23:36:00,
2013-02-28 16:42:00,38.2,27.1,30.49,South,176,3.0,35.0,64,0.00,,,0.00,Wunderground v.1.15,2013-02-28 23:42:00,
2013-02-28 16:48:00,38.0,27.6,30.50,South,178,4.0,35.0,66,0.00,,,0.00,Wunderground v.1.15,2013-02-28 23:48:00,
2013-02-28 16:54:00,37.9,27.5,30.50,South,178,2.0,35.0,66,0.00,,,0.00,Wunderground v.1.15,2013-02-28 23:54:00,
2013-02-28 17:00:00,37.8,28.2,30.50,South,176,1.0,35.0,68,0.00,,,0.00,Wunderground v.1.15,2013-03-01 00:00:00,
2013-02-28 17:06:00,37.7,28.1,30.50,South,175,1.0,35.0,68,0.00,,,0.00,Wunderground v.1.15,2013-03-01 00:06:00,
2013-02-28 17:12:00,37.5,28.2,30.51,South,178,1.0,35.0,69,0.00,,,0.00,Wunderground v.1.15,2013-03-01 00:12:00,
2013-02-28 17:18:00,37.4,28.2,30.50,SSE,158,2.0,35.0,69,0.00,,,0.00,Wunderground v.1.15,2013-03-01 00:18:00,
2013-02-28 17:24:00,37.4,27.1,30.50,SSE,163,3.0,35.0,66,0.00,,,0.00,Wunderground v.1.15,2013-03-01 00:24:00,
2013-02-28 17:30:00,37.3,27.0,30.50,South,172,3.0,35.0,66,0.00,,,0.00,Wunderground v.1.15,2013-03-01 00:30:00,
2013-02-28 17:36:00,37.2,26.9,30.50,SSE,156,2.0,35.0,66,0.00,,,0.00,Wunderground v.1.15,2013-03-01 00:36:00,
2013-02-28 17:42:00,37.0,27.1,30.50,SW,236,3.0,35.0,67,0.00,,,0.00,Wunderground v.1.15,2013-03-01 00:42:00,
2013-02-28 17:48:00,36.8,26.9,30.51,SW,234,2.0,35.0,67,0.00,,,0.00,Wunderground v.1.15,2013-03-01 00:48:00,
2013-02-28 17:54:00,36.8,27.2,30.52,SW,232,2.0,35.0,68,0.00,,,0.00,Wunderground v.1.15,2013-03-01 00:54:00,
2013-02-28 18:00:00,36.7,27.5,30.52,SW,226,1.0,35.0,69,0.00,,,0.00,Wunderground v.1.15,2013-03-01 01:00:00,
2013-02-28 18:06:00,36.4,27.2,30.53,NNW,339,1.0,35.0,69,0.00,,,0.00,Wunderground v.1.15,2013-03-01 01:06:00,
2013-02-28 18:12:00,36.6,27.0,30.53,NNE,25,5.0,35.0,68,0.00,,,0.00,Wunderground v.1.15,2013-03-01 01:12:00,
2013-02-28 18:18:00,37.0,26.3,30.53,NNW,333,7.0,35.0,65,0.00,,,0.00,Wunderground v.1.15,2013-03-01 01:18:00,
2013-02-28 18:24:00,37.0,25.9,30.53,North,359,6.0,35.0,64,0.00,,,0.00,Wunderground v.1.15,2013-03-01 01:24:00,
2013-02-28 18:30:00,36.8,25.8,30.54,NNE,26,7.0,7.0,64,0.00,,,0.00,Wunderground v.1.15,2013-03-01 01:30:00,
2013-02-28 18:36:00,36.3,26.4,30.54,NNE,16,7.0,35.0,67,0.00,,,0.00,Wunderground v.1.15,2013-03-01 01:36:00,
2013-02-28 18:42:00,35.7,26.9,30.54,NNE,23,6.0,35.0,70,0.00,,,0.00,Wunderground v.1.15,2013-03-01 01:42:00,
2013-02-28 18:48:00,35.4,27.3,30.54,NNE,26,5.0,35.0,72,0.00,,,0.00,Wunderground v.1.15,2013-03-01 01:48:00,
2013-02-28 18:54:00,35.2,27.1,30.54,North,11,3.0,35.0,72,0.00,,,0.00,Wunderground v.1.15,2013-03-01 01:54:00,
2013-02-28 19:00:00,35.4,27.3,30.54,NNW,347,3.0,3.0,72,0.00,,,0.00,Wunderground v.1.15,2013-03-01 02:00:00,
2013-02-28 19:06:00,35.4,26.9,30.54,NNW,328,4.0,35.0,71,0.00,,,0.00,Wunderground v.1.15,2013-03-01 02:06:00,
2013-02-28 19:12:00,35.4,26.9,30.54,NNW,330,3.0,35.0,71,0.00,,,0.00,Wunderground v.1.15,2013-03-01 02:12:00,
2013-02-28 19:18:00,35.3,26.8,30.54,NNW,330,2.0,35.0,71,0.00,,,0.00,Wunderground v.1.15,2013-03-01 02:18:00,
2013-02-28 19:24:00,35.1,27.0,30.54,NNW,330,1.0,35.0,72,0.00,,,0.00,Wunderground v.1.15,2013-03-01 02:24:00,
2013-02-28 19:30:00,34.7,26.9,30.55,NW,316,2.0,35.0,73,0.00,,,0.00,Wunderground v.1.15,2013-03-01 02:30:00,
2013-02-28 19:36:00,34.5,26.7,30.54,NW,312,2.0,35.0,73,0.00,,,0.00,Wunderground v.1.15,2013-03-01 02:36:00,
2013-02-28 19:42:00,34.1,26.7,30.54,NW,308,1.0,3.0,74,0.00,,,0.00,Wunderground v.1.15,2013-03-01 02:42:00,
2013-02-28 19:48:00,34.2,26.4,30.54,NW,305,2.0,35.0,73,0.00,,,0.00,Wunderground v.1.15,2013-03-01 02:48:00,
2013-02-28 19:54:00,34.2,26.4,30.54,WNW,287,2.0,35.0,73,0.00,,,0.00,Wunderground v.1.15,2013-03-01 02:54:00,
2013-02-28 20:00:00,34.3,26.5,30.54,West,268,2.0,35.0,73,0.00,,,0.00,Wunderground v.1.15,2013-03-01 03:00:00,
2013-02-28 20:06:00,34.5,26.1,30.54,WNW,301,2.0,35.0,71,0.00,,,0.00,Wunderground v.1.15,2013-03-01 03:06:00,
2013-02-28 20:12:00,35.3,25.8,30.54,WNW,299,4.0,35.0,68,0.00,,,0.00,Wunderground v.1.15,2013-03-01 03:12:00,
2013-02-28 20:18:00,35.5,25.6,30.54,NW,304,5.0,35.0,67,0.00,,,0.00,Wunderground v.1.15,2013-03-01 03:18:00,
2013-02-28 20:24:00,35.3,25.1,30.54,WNW,301,5.0,35.0,66,0.00,,,0.00,Wunderground v.1.15,2013-03-01 03:24:00,
2013-02-28 20:30:00,35.1,25.2,30.54,NW,316,4.0,35.0,67,0.00,,,0.00,Wunderground v.1.15,2013-03-01 03:30:00,
2013-02-28 20:36:00,35.0,25.1,30.54,NW,314,5.0,35.0,67,0.00,,,0.00,Wunderground v.1.15,2013-03-01 03:36:00,
2013-02-28 20:42:00,35.1,25.6,30.55,WNW,303,6.0,35.0,68,0.00,,,0.00,Wunderground v.1.15,2013-03-01 03:42:00,
2013-02-28 20:48:00,34.9,25.4,30.55,WNW,297,5.0,35.0,68,0.00,,,0.00,Wunderground v.1.15,2013-03-01 03:48:00,
2013-02-28 20:54:00,34.7,25.2,30.55,WNW,297,4.0,35.0,68,0.00,,,0.00,Wunderground v.1.15,2013-03-01 03:54:00,
2013-02-28 21:00:00,34.9,25.8,30.55,WNW,299,6.0,6.0,69,0.00,,,0.00,Wunderground v.1.15,2013-03-01 04:00:00,
2013-02-28 21:06:00,34.7,25.6,30.55,WNW,293,5.0,35.0,69,0.00,,,0.00,Wunderground v.1.15,2013-03-01 04:06:00,
2013-02-28 21:12:00,34.6,25.8,30.55,WNW,300,5.0,35.0,70,0.00,,,0.00,Wunderground v.1.15,2013-03-01 04:12:00,
2013-02-28 21:18:00,34.1,25.3,30.55,WNW,299,3.0,35.0,70,0.00,,,0.00,Wunderground v.1.15,2013-03-01 04:18:00,
2013-02-28 21:24:00,33.6,25.2,30.55,WNW,297,2.0,35.0,71,0.00,,,0.00,Wunderground v.1.15,2013-03-01 04:24:00,
2013-02-28 21:30:00,33.5,25.4,30.55,WNW,295,2.0,2.0,72,0.00,,,0.00,Wunderground v.1.15,2013-03-01 04:30:00,
2013-02-28 21:36:00,33.5,25.4,30.55,WNW,283,3.0,35.0,72,0.00,,,0.00,Wunderground v.1.15,2013-03-01 04:36:00,
2013-02-28 21:42:00,33.5,25.4,30.55,WNW,283,2.0,35.0,72,0.00,,,0.00,Wunderground v.1.15,2013-03-01 04:42:00,
2013-02-28 21:48:00,33.4,25.0,30.54,West,261,3.0,35.0,71,0.00,,,0.00,Wunderground v.1.15,2013-03-01 04:48:00,
2013-02-28 21:54:00,33.3,25.2,30.54,West,266,3.0,35.0,72,0.00,,,0.00,Wunderground v.1.15,2013-03-01 04:54:00,
2013-02-28 22:00:00,33.1,24.7,30.55,West,280,4.0,35.0,71,0.00,,,0.00,Wunderground v.1.15,2013-03-01 05:00:00,
2013-02-28 22:02:00,33.0,25.0,30.55,West,274,4.0,35.0,72,0.00,,,0.00,Wunderground v.1.15,2013-03-01 05:02:00,
2013-02-28 22:04:00,32.9,24.9,30.55,West,271,4.0,35.0,72,0.00,,,0.00,Wunderground v.1.15,2013-03-01 05:04:00,
2013-02-28 22:10:00,32.6,24.6,30.55,West,277,4.0,35.0,72,0.00,,,0.00,Wunderground v.1.15,2013-03-01 05:10:00,
2013-02-28 22:16:00,32.2,24.5,30.55,West,277,4.0,35.0,73,0.00,,,0.00,Wunderground v.1.15,2013-03-01 05:16:00,
2013-02-28 22:18:00,32.1,24.4,30.55,WNW,282,4.0,35.0,73,0.00,,,0.00,Wunderground v.1.15,2013-03-01 05:18:00,
2013-02-28 22:24:00,31.6,23.9,30.56,West,281,3.0,35.0,73,0.00,,,0.00,Wunderground v.1.15,2013-03-01 05:24:00,
2013-02-28 22:30:00,31.2,23.9,30.56,WNW,283,2.0,2.0,74,0.00,,,0.00,Wunderground v.1.15,2013-03-01 05:30:00,
2013-02-28 22:36:00,30.7,23.7,30.56,WNW,283,1.0,35.0,75,0.00,,,0.00,Wunderground v.1.15,2013-03-01 05:36:00,
2013-02-28 22:42:00,30.2,23.2,30.56,WNW,283,2.0,35.0,75,0.00,,,0.00,Wunderground v.1.15,2013-03-01 05:42:00,
2013-02-28 22:48:00,29.9,23.3,30.56,WNW,283,2.0,35.0,76,0.00,,,0.00,Wunderground v.1.15,2013-03-01 05:48:00,
2013-02-28 22:54:00,29.7,23.1,30.56,West,279,2.0,35.0,76,0.00,,,0.00,Wunderground v.1.15,2013-03-01 05:54:00,
2013-02-28 23:00:00,29.1,22.5,30.56,West,278,2.0,35.0,76,0.00,,,0.00,Wunderground v.1.15,2013-03-01 06:00:00,
2013-02-28 23:06:00,28.7,22.4,30.56,West,278,2.0,35.0,77,0.00,,,0.00,Wunderground v.1.15,2013-03-01 06:06:00,
2013-02-28 23:12:00,28.6,22.6,30.56,West,278,1.0,35.0,78,0.00,,,0.00,Wunderground v.1.15,2013-03-01 06:12:00,
2013-02-28 23:18:00,28.3,22.3,30.56,West,278,0.0,35.0,78,0.00,,,0.00,Wunderground v.1.15,2013-03-01 06:18:00,
2013-02-28 23:24:00,28.1,22.4,30.56,West,278,0.0,35.0,79,0.00,,,0.00,Wunderground v.1.15,2013-03-01 06:24:00,
2013-02-28 23:30:00,28.3,22.9,30.56,West,278,0.0,35.0,80,0.00,,,0.00,Wunderground v.1.15,2013-03-01 06:30:00,
2013-02-28 23:36:00,28.6,23.2,30.56,West,278,0.0,35.0,80,0.00,,,0.00,Wunderground v.1.15,2013-03-01 06:36:00,
2013-02-28 23:42:00,28.8,22.8,30.56,West,278,0.0,35.0,78,0.00,,,0.00,Wunderground v.1.15,2013-03-01 06:42:00,
2013-02-28 23:48:00,29.0,23.0,30.56,West,278,0.0,35.0,78,0.00,,,0.00,Wunderground v.1.15,2013-03-01 06:48:00,
2013-02-28 23:54:00,29.2,23.2,30.56,West,278,1.0,35.0,78,0.00,,,0.00,Wunderground v.1.15,2013-03-01 06:54:00,